Wind_Speed
34 33 33 33 32 32 32 32 32 31 31 30 30 30 29 28 27 26 25 23 23 22 21 21 20 19 18 17 16 15 14 14 13 12 11 10 10 10 9 8 8 8 7
36 36 36 36 35 35 34 34 34 34 33 32 32 32 31 31 30 28 27 26 25 24 24 23 22 21 20 19 18 17 16 16 15 14 13 12 12 11 11 11 11 10 10
39 39 38 38 38 38 37 36 36 37 36 35 35 34 34 33 32 31 30 29 28 27 26 25 24 23 22 21 21 19 18 18 17 16 15 15 14 13 13 13 12 12 12
42 41 40 40 41 40 40 39 39 39 39 38 38 37 37 36 35 34 33 32 31 30 29 28 27 26 25 24 23 22 21 20 19 19 17 17 16 15 15 15 15 14 14
44 43 42 42 42 43 43 42 41 41 41 40 40 39 39 38 38 37 37 35 34 33 31 30 30 29 28 27 26 25 24 23 22 21 20 19 19 18 17 17 17 16 16
45 45 44 43 43 44 45 44 43 43 43 43 42 42 41 40 40 40 39 38 37 36 34 33 32 31 30 29 28 28 27 26 25 24 23 23 22 21 20 20 19 18 18
46 47 46 45 44 44 45 46 45 45 45 45 44 44 43 43 42 42 41 40 38 38 37 35 34 33 33 32 31 30 29 28 28 27 26 25 24 24 23 22 22 21 20
48 48 47 46 46 45 46 47 47 47 46 47 47 46 46 45 45 45 44 43 41 40 39 38 36 36 35 34 34 32 31 31 30 29 29 28 26 26 26 25 25 24 23
49 49 48 47 48 47 47 47 48 48 48 48 49 49 48 48 47 47 47 46 44 43 42 41 40 39 37 36 36 35 34 33 32 32 31 31 30 29 29 28 27 26 26
50 50 50 49 49 48 48 48 49 50 50 49 50 50 50 49 49 49 49 48 47 46 45 44 43 41 40 39 38 37 37 36 35 34 34 33 33 32 31 30 29 29 29
50 50 51 51 51 50 49 49 50 50 50 50 51 51 51 51 51 51 51 50 50 48 47 46 45 44 42 41 40 40 39 38 38 37 36 36 35 34 33 33 32 31 31
51 52 51 52 52 51 50 50 50 50 51 51 51 51 52 52 53 53 53 52 52 50 49 48 47 46 44 43 42 42 41 40 40 39 38 37 37 36 36 35 35 34 33
52 53 52 52 52 52 51 50 50 51 51 52 52 51 52 53 54 54 54 54 53 52 51 50 49 48 47 45 44 44 43 42 42 41 40 40 39 39 38 38 38 38 37
53 53 53 53 53 53 53 53 52 52 52 52 52 52 52 53 55 55 55 55 54 54 53 53 51 50 49 48 47 46 46 44 44 44 43 42 41 41 40 40 40 40 40
53 53 54 54 54 54 55 54 54 53 54 53 53 53 53 53 54 56 56 56 56 55 55 54 53 52 51 50 49 49 47 47 46 45 45 44 43 42 42 40 40 40 40
53 54 55 55 55 55 56 55 54 54 54 54 54 54 54 54 54 55 56 56 56 56 57 55 55 54 53 52 52 51 49 48 48 47 46 46 45 44 43 42 42 41 41
52 53 54 54 55 55 56 56 56 54 54 54 54 55 55 55 55 56 56 57 57 58 58 56 56 56 56 55 54 53 52 50 50 48 47 47 47 46 45 44 44 44 43
52 53 53 53 54 56 56 55 56 55 55 55 54 55 55 56 56 56 57 58 58 59 59 58 57 57 57 56 54 54 53 51 50 49 49 48 48 47 47 46 45 45 45
52 53 53 53 54 55 56 55 55 55 56 56 55 55 55 56 56 57 57 57 58 58 59 59 57 56 56 55 54 54 54 52 51 51 50 50 50 49 49 48 47 47 46
51 52 54 54 53 54 55 54 54 55 56 56 55 55 55 54 55 56 57 57 58 59 59 59 58 58 57 55 55 54 54 53 53 53 53 53 51 50 50 49 49 48 48
50 51 52 53 53 54 54 54 54 54 54 55 54 54 54 54 55 55 56 56 57 59 59 59 58 58 58 56 55 54 54 54 54 54 54 54 55 54 53 52 51 50 50
50 50 51 52 52 53 53 54 54 54 53 53 54 53 53 54 55 55 55 56 57 59 59 59 59 58 58 57 56 55 56 56 55 54 54 54 56 56 55 54 53 52 52
49 49 50 51 52 53 53 53 55 55 55 54 53 54 53 52 53 55 55 56 56 57 59 59 58 58 58 58 57 56 56 56 55 55 55 55 55 56 56 55 54 53 53
48 49 50 51 52 53 53 54 55 56 56 55 54 54 54 52 52 53 53 55 55 55 56 58 58 58 58 58 58 56 56 57 56 55 55 55 55 56 56 55 54 54 54
47 48 49 50 52 53 54 54 54 56 56 55 55 56 56 55 54 53 54 55 55 55 56 57 58 59 59 59 59 59 58 57 58 58 57 58 57 57 57 57 56 55 55
46 48 49 51 52 52 53 53 54 54 56 56 56 56 56 57 56 55 55 55 55 55 56 57 58 58 59 60 60 60 59 59 59 58 57 58 58 59 59 58 57 57 57
Wind_Direction
252 252 251 251 251 251 251 251 250 249 248 247 246 245 244 244 243 244 245 246 246 246 246 248 248 249 250 251 252 253 255 254 254 256 258 259 261 263 262 262 267 267 271
251 251 251 252 252 252 252 251 250 250 248 247 246 245 244 243 243 243 243 245 246 246 246 248 249 248 250 250 251 253 253 252 252 254 256 258 260 260 260 261 264 267 270
253 252 252 253 253 252 252 251 251 250 249 247 246 245 245 243 243 242 242 243 245 246 247 247 248 249 249 251 251 252 253 253 253 253 254 256 259 260 260 261 262 267 269
255 254 254 254 253 252 252 251 250 250 249 247 246 245 244 243 243 243 243 243 245 246 248 248 248 248 249 250 251 251 252 253 254 254 254 255 257 260 261 262 263 268 269
255 255 255 254 254 253 252 251 250 249 248 247 246 245 244 243 243 243 243 244 245 246 248 248 247 248 249 249 250 250 250 252 253 254 254 255 257 259 261 261 263 266 268
256 254 254 254 254 254 253 252 251 250 249 247 246 245 244 244 243 243 243 243 244 245 247 248 247 247 248 249 250 250 250 251 252 253 254 254 256 258 260 260 261 263 265
256 255 254 254 254 254 253 252 251 251 250 248 246 245 244 244 243 242 242 242 243 244 245 247 247 247 248 247 248 249 250 251 252 253 255 255 256 258 260 260 260 261 263
256 255 255 254 254 253 254 253 252 251 250 249 248 246 245 244 244 243 242 243 243 244 244 246 247 247 247 246 247 248 249 250 252 253 255 255 254 256 258 259 260 261 261
255 255 254 254 254 254 254 254 253 252 251 250 249 247 246 245 244 242 242 243 243 244 244 245 246 247 247 247 248 248 249 251 252 254 255 255 254 256 258 259 260 261 262
255 254 254 254 254 254 255 254 253 253 252 251 249 248 247 246 245 243 242 242 243 244 244 245 246 246 247 247 248 249 250 251 252 253 255 256 255 256 257 258 258 261 263
255 255 255 254 254 254 254 254 253 253 252 251 250 249 247 246 246 245 244 243 243 243 244 244 245 246 246 247 248 249 250 251 251 252 254 255 256 256 257 257 258 260 261
256 256 256 256 255 253 252 253 252 252 253 252 251 249 248 247 246 245 244 244 244 244 244 244 245 246 246 246 248 248 249 250 251 251 253 255 256 256 256 257 258 259 260
255 255 255 256 254 253 252 252 252 252 253 254 252 251 249 248 247 246 245 244 243 244 244 245 246 245 245 245 246 248 248 249 251 251 253 255 256 256 257 258 259 259 259
255 255 255 255 255 253 252 252 252 253 253 254 253 251 251 249 247 246 245 244 243 243 245 246 246 245 245 245 246 248 248 248 251 252 253 255 256 257 258 259 259 259 259
255 254 254 254 255 255 254 254 254 253 253 254 253 252 251 249 248 246 244 244 244 244 245 245 245 245 245 245 247 248 249 250 252 252 253 254 255 257 258 258 259 260 260
256 254 254 254 254 255 255 254 254 253 253 253 252 251 250 249 248 246 245 244 244 244 244 244 244 244 245 245 246 247 250 251 252 252 252 253 255 256 257 258 259 260 261
256 254 254 254 254 255 254 254 253 252 251 252 252 251 250 249 248 247 246 245 245 245 244 243 244 243 244 245 246 248 250 250 250 251 252 253 254 256 256 258 259 260 261
257 255 254 254 255 254 253 252 251 251 251 251 251 251 250 249 248 247 247 246 246 245 244 244 244 244 245 245 245 247 248 249 249 250 252 253 254 254 256 257 258 259 260
259 256 255 255 255 253 252 251 250 250 251 251 251 251 250 249 248 248 248 247 246 246 244 244 244 244 244 244 244 245 247 248 249 249 251 252 253 253 254 255 257 259 260
261 257 255 255 255 254 253 253 252 251 251 250 250 250 249 249 248 247 247 246 246 245 244 244 244 244 243 243 243 245 247 248 249 249 251 251 252 253 254 255 257 258 259
262 259 257 255 254 253 253 253 252 252 251 251 250 248 247 248 248 247 247 246 246 245 244 243 243 244 244 244 245 246 248 248 248 250 251 251 252 253 254 255 257 259 260
263 261 259 257 255 255 254 253 253 252 251 251 249 248 248 249 248 248 248 248 247 246 244 243 243 243 244 244 245 246 248 249 249 249 251 251 252 253 255 256 257 258 260
265 263 261 259 257 256 255 254 254 253 253 251 249 249 249 249 250 249 248 248 247 245 243 243 243 242 243 244 246 246 247 248 249 250 251 251 251 252 253 255 256 258 259
266 265 263 261 259 257 256 255 255 254 253 251 249 248 249 249 249 247 248 248 247 245 245 244 244 243 243 244 245 247 248 249 249 251 252 252 251 253 253 254 256 258 259
267 265 263 261 259 258 257 256 256 255 253 251 250 250 249 250 248 248 248 247 246 246 246 246 245 245 245 246 247 248 250 251 251 251 253 253 252 253 254 255 257 259 260
269 266 264 262 259 258 257 256 255 254 253 252 251 251 250 249 249 249 248 247 247 248 247 246 246 246 246 247 248 250 251 252 253 253 254 255 254 254 255 256 258 259 260
Height
5793 5794 5795 5796 5797 5798 5799 5800 5802 5803 5805 5806 5808 5810 5812 5814 5816 5818 5819 5821 5822 5823 5824 5825 5826 5827 5828 5829 5829 5830 5830 5830 5831 5831 5831 5831 5831 5831 5831 5831 5831 5831 5830
5784 5785 5787 5788 5789 5790 5791 5792 5793 5795 5796 5798 5800 5802 5804 5806 5809 5811 5813 5815 5816 5818 5819 5820 5821 5822 5823 5825 5825 5826 5827 5827 5827 5828 5828 5828 5828 5828 5828 5828 5828 5828 5828
5774 5776 5777 5779 5780 5781 5782 5783 5784 5786 5787 5789 5792 5794 5796 5798 5801 5804 5806 5808 5810 5812 5813 5815 5816 5817 5818 5820 5821 5822 5822 5823 5823 5824 5824 5825 5825 5825 5825 5825 5825 5825 5825
5763 5765 5766 5768 5769 5771 5772 5773 5775 5776 5778 5780 5782 5785 5787 5790 5793 5795 5798 5801 5803 5805 5807 5808 5810 5811 5813 5814 5815 5816 5818 5818 5819 5820 5820 5821 5821 5821 5822 5822 5822 5822 5822
5752 5753 5755 5757 5758 5760 5761 5763 5764 5766 5768 5770 5772 5775 5778 5781 5783 5786 5789 5792 5795 5797 5799 5801 5803 5805 5806 5808 5809 5811 5812 5813 5814 5815 5816 5816 5817 5817 5817 5818 5818 5818 5818
5740 5742 5743 5745 5747 5748 5750 5751 5753 5755 5757 5759 5762 5765 5768 5771 5774 5777 5780 5783 5786 5789 5791 5793 5796 5798 5800 5801 5803 5804 5806 5807 5808 5809 5810 5811 5812 5812 5813 5813 5813 5814 5814
5728 5729 5731 5733 5734 5736 5738 5739 5741 5743 5746 5748 5751 5754 5757 5760 5763 5766 5770 5773 5776 5779 5782 5785 5787 5790 5792 5794 5796 5797 5799 5800 5802 5803 5804 5805 5806 5806 5807 5808 5808 5809 5809
5715 5717 5718 5720 5722 5724 5725 5727 5729 5731 5734 5736 5739 5742 5746 5750 5752 5756 5759 5763 5766 5769 5773 5776 5779 5781 5783 5786 5788 5790 5791 5793 5794 5796 5797 5798 5799 5800 5801 5802 5802 5803 5803
5702 5704 5706 5707 5710 5711 5713 5715 5716 5719 5722 5724 5727 5730 5734 5738 5741 5745 5748 5752 5755 5759 5762 5766 5769 5772 5774 5777 5779 5781 5783 5785 5786 5788 5790 5791 5792 5793 5794 5795 5796 5796 5797
5689 5691 5692 5694 5696 5699 5700 5702 5703 5706 5708 5711 5714 5717 5721 5725 5729 5733 5737 5741 5744 5748 5751 5755 5759 5762 5765 5767 5770 5772 5774 5776 5778 5780 5781 5783 5784 5785 5786 5788 5789 5789 5790
5675 5677 5678 5680 5682 5685 5687 5689 5691 5692 5695 5698 5701 5704 5708 5711 5715 5720 5725 5729 5732 5736 5740 5744 5748 5751 5754 5757 5760 5762 5765 5767 5769 5770 5772 5774 5775 5776 5778 5779 5780 5781 5782
5661 5663 5665 5666 5668 5671 5673 5675 5677 5679 5681 5684 5687 5690 5694 5698 5702 5706 5711 5716 5720 5724 5728 5732 5736 5740 5743 5746 5749 5752 5754 5757 5759 5761 5763 5764 5766 5767 5769 5770 5771 5773 5773
5647 5649 5650 5652 5654 5657 5659 5662 5663 5666 5668 5670 5673 5676 5679 5683 5687 5691 5696 5702 5706 5711 5715 5720 5724 5728 5731 5735 5738 5741 5744 5746 5748 5750 5752 5754 5756 5757 5759 5760 5761 5762 5764
5632 5634 5636 5638 5640 5642 5645 5648 5650 5652 5654 5657 5659 5662 5665 5669 5673 5677 5682 5687 5693 5698 5702 5706 5711 5715 5719 5722 5726 5729 5732 5735 5737 5739 5741 5743 5745 5746 5748 5749 5750 5751 5753
5617 5619 5621 5623 5626 5628 5631 5633 5636 5638 5640 5642 5645 5648 5651 5654 5658 5663 5667 5673 5678 5684 5689 5693 5697 5702 5706 5710 5713 5716 5719 5723 5725 5728 5730 5732 5734 5735 5737 5738 5739 5741 5742
5602 5604 5606 5608 5611 5613 5616 5618 5621 5623 5625 5628 5631 5634 5637 5640 5644 5648 5653 5658 5663 5669 5675 5681 5684 5688 5692 5696 5700 5704 5707 5710 5713 5716 5718 5720 5722 5724 5726 5727 5729 5730 5731
5587 5589 5591 5593 5595 5598 5600 5603 5606 5608 5610 5613 5616 5619 5623 5626 5630 5634 5639 5644 5648 5654 5660 5667 5670 5674 5678 5682 5686 5690 5693 5697 5700 5703 5706 5708 5710 5712 5714 5716 5717 5719 5720
5573 5574 5576 5578 5580 5583 5585 5588 5590 5593 5596 5599 5602 5605 5608 5612 5615 5620 5624 5629 5634 5639 5644 5651 5656 5660 5664 5668 5673 5676 5680 5683 5687 5690 5693 5696 5698 5700 5702 5703 5705 5707 5708
5558 5559 5561 5563 5565 5567 5570 5573 5576 5579 5581 5584 5588 5591 5594 5597 5601 5605 5610 5614 5619 5624 5629 5634 5640 5645 5650 5654 5658 5662 5666 5670 5674 5677 5680 5683 5685 5687 5689 5691 5693 5695 5696
5544 5545 5546 5548 5550 5552 5555 5558 5561 5564 5567 5570 5573 5576 5580 5583 5587 5591 5595 5600 5604 5609 5614 5619 5625 5630 5635 5640 5643 5648 5652 5656 5660 5663 5666 5669 5671 5673 5676 5678 5680 5682 5683
5530 5530 5532 5533 5536 5538 5541 5544 5547 5550 5553 5556 5559 5562 5566 5570 5573 5577 5581 5585 5589 5593 5599 5604 5609 5615 5620 5625 5629 5633 5637 5641 5645 5649 5651 5654 5657 5659 5661 5664 5666 5668 5670
5516 5516 5518 5519 5521 5524 5527 5529 5532 5535 5538 5542 5545 5549 5552 5556 5559 5562 5566 5570 5574 5579 5584 5589 5595 5600 5605 5610 5614 5618 5622 5626 5631 5635 5637 5639 5642 5644 5647 5650 5652 5654 5655
5503 5503 5504 5505 5507 5510 5513 5515 5517 5520 5524 5527 5531 5534 5537 5541 5544 5548 5552 5555 5559 5563 5568 5574 5579 5585 5590 5596 5599 5604 5607 5611 5616 5619 5621 5624 5626 5629 5632 5635 5637 5639 5641
5490 5490 5490 5491 5493 5496 5498 5500 5502 5505 5508 5512 5516 5519 5522 5526 5530 5533 5537 5541 5545 5549 5554 5559 5565 5571 5575 5579 5583 5588 5591 5595 5599 5603 5605 5608 5611 5614 5617 5620 5622 5624 5625
5477 5477 5477 5477 5479 5481 5483 5485 5487 5489 5493 5497 5501 5504 5508 5512 5516 5519 5522 5527 5531 5536 5540 5545 5550 5555 5559 5564 5568 5571 5575 5579 5583 5587 5589 5592 5595 5597 5600 5604 5606 5608 5610
5463 5463 5463 5464 5465 5467 5469 5470 5472 5474 5478 5483 5486 5489 5493 5496 5500 5502 5506 5511 5516 5521 5525 5530 5535 5539 5544 5548 5552 5555 5560 5563 5567 5570 5574 5576 5579 5581 5584 5588 5590 5591 5593